Location: Campillo
(40.8621°N, 4.2488°W)
Time: 11:56:47
(UTC+00:00)

ATLAS 5 CENTAUR R/B - Pass Details

Date: 05 October 2021
Orbit: 509 x 1148 km, 63.4° (Epoch: 11 October)

Event Time Altitude Azimuth Distance (km) Brightness Sun altitude
Rises 05:34:51 0° 332° (NNW) 3,214 5.0 -8.9°
Reaches altitude 10° 05:37:17 10° 341° (NNW) 2,385 4.4 -8.5°
Maximum altitude 05:42:25 36° 48° (NE) 1,389 3.9 -7.5°
Drops below altitude 10° 05:48:22 10° 113° (ESE) 2,780 6.2 -6.4°
Sets 05:51:24 0° 122° (ESE) 3,815 6.8 -5.8°
